Theta_e
309 311 309 308 307 307 307 308 309 311 311 311 315 315 313 313 313 314 314 315 315 314 318 328 345 344 338 338 335 334 334 333 334 334 335 336 336 336 336 337 337 337 338 338 339 340 340 341 341 340 339 339 338 337 337 336 337 336 335 334 334 333 333 333 334 335 335 335 334 336 336 336 336 335 336 335 335 334 333 333 332 331 330 330 330 331
310 312 310 309 308 308 308 309 309 310 309 310 312 312 313 313 312 315 315 315 313 314 329 337 344 341 337 338 333 332 334 333 334 334 335 335 336 336 336 336 336 336 337 338 338 339 340 340 339 339 338 337 337 336 336 336 336 336 335 334 334 333 333 333 334 335 336 335 335 336 336 336 336 335 335 334 334 333 332 332 331 330 330 329 330 331
310 311 311 310 309 309 310 310 310 310 309 310 311 311 313 312 314 315 313 323 322 323 339 339 341 340 336 336 332 332 334 333 334 334 334 335 335 336 336 336 336 336 337 337 338 338 338 338 337 337 337 336 337 336 336 335 335 335 334 334 333 332 332 333 334 336 336 335 335 336 336 336 335 335 334 333 333 332 331 330 330 329 329 330 332 332
310 310 310 310 310 310 310 310 310 310 310 311 311 312 314 312 314 311 314 336 336 332 341 339 339 341 337 336 333 332 334 333 334 334 334 334 334 335 335 336 336 336 336 337 337 338 337 336 336 336 337 336 336 336 335 335 334 334 333 333 332 331 332 333 335 336 335 335 336 336 336 335 334 334 333 332 332 331 330 329 328 328 330 332 333 332
310 309 309 310 311 310 310 310 311 311 311 311 311 312 313 313 313 313 321 339 341 336 337 337 340 342 339 339 337 334 334 334 333 334 333 334 334 334 335 335 336 335 335 336 337 337 337 336 336 336 336 336 336 335 335 334 334 333 332 333 333 333 334 334 335 336 335 335 336 336 335 334 334 333 332 331 332 331 329 329 329 330 332 333 333 333
308 309 309 311 312 310 309 309 309 311 311 311 312 311 313 313 312 320 329 336 341 341 338 334 335 341 341 340 339 336 336 335 334 334 333 334 333 334 334 335 335 335 335 335 337 337 337 336 336 336 336 336 335 335 335 335 334 333 332 333 334 334 335 335 335 336 336 336 335 334 333 333 333 332 330 330 332 331 330 331 332 333 332 332 331 331
307 308 309 311 311 310 310 309 309 310 311 311 313 311 313 313 311 324 332 328 332 337 338 331 325 336 341 340 339 338 338 338 335 334 334 334 334 333 334 335 335 335 335 335 337 338 337 335 335 336 336 336 335 335 336 335 335 334 333 334 334 334 335 335 335 336 335 335 335 334 333 332 332 331 330 331 332 332 332 332 332 331 330 329 329 328
308 308 309 310 310 310 309 309 309 310 311 312 313 312 313 313 311 320 327 326 330 333 336 333 329 338 341 338 339 338 339 339 337 336 335 333 334 333 334 334 334 335 334 335 336 338 337 335 335 336 336 336 336 336 336 336 335 335 334 334 334 334 335 335 335 335 335 335 334 334 333 332 332 332 332 332 332 332 332 331 330 329 327 327 326 327
309 308 309 309 310 310 309 310 310 309 311 312 313 313 314 313 312 316 318 319 326 329 333 336 336 339 341 338 339 339 339 341 339 337 335 334 334 333 333 333 334 334 334 334 335 337 337 335 334 336 335 336 337 337 337 336 335 335 335 335 335 335 335 335 335 335 334 334 334 334 333 332 332 333 332 332 331 331 330 329 328 326 325 324 325 325
309 308 309 309 309 310 309 310 310 309 311 311 313 314 313 313 313 313 314 314 318 320 326 335 335 335 340 341 339 341 341 340 339 337 335 334 334 333 333 333 333 334 333 333 335 335 336 336 336 336 335 335 337 337 337 336 335 336 335 335 335 335 335 335 335 335 334 333 334 333 333 333 332 332 331 331 331 330 329 327 325 324 323 323 324 325
309 309 309 309 309 310 310 310 309 310 311 311 313 312 311 316 316 313 317 319 318 316 317 330 335 330 334 339 339 340 341 339 338 338 336 335 334 333 333 333 333 334 333 333 334 334 336 337 337 337 336 335 335 337 337 337 336 336 335 335 336 335 334 335 334 334 333 333 333 333 333 332 331 331 331 331 331 330 328 325 323 322 322 322 323 322
308 309 310 309 310 310 311 310 308 310 312 312 313 312 312 318 316 312 316 317 315 315 316 326 334 329 329 337 339 337 337 337 337 338 337 335 334 334 333 333 333 333 333 333 333 333 335 336 336 336 335 334 335 336 337 337 336 336 336 335 335 335 334 334 334 333 333 333 333 332 332 331 331 331 331 331 330 328 325 323 322 321 320 320 320 318
309 309 309 310 310 310 310 311 310 310 311 312 313 314 313 314 313 311 314 315 315 318 320 324 331 332 329 334 338 336 336 336 335 336 336 335 334 334 333 333 332 332 332 333 333 333 335 336 335 335 335 334 335 335 335 336 336 336 336 335 334 334 334 334 333 333 333 332 332 331 331 332 332 331 330 329 327 325 323 322 322 321 319 317 316 314
310 309 309 309 310 310 310 310 310 310 310 311 311 313 313 313 314 313 314 316 317 319 320 321 329 334 329 328 333 335 336 335 334 335 336 335 335 334 333 333 332 332 332 333 333 334 336 336 335 333 333 334 334 335 335 335 335 336 335 334 333 333 334 333 333 333 332 331 331 331 331 331 330 329 328 326 325 323 323 322 321 320 316 313 312 311
311 312 311 310 309 310 310 310 310 311 311 310 311 312 314 316 316 315 316 317 317 319 319 321 329 333 327 328 331 332 334 335 334 335 336 335 334 333 333 333 333 332 332 333 335 335 335 336 334 332 332 334 334 335 335 334 335 335 334 333 333 333 333 333 332 332 332 331 331 331 330 329 328 327 326 325 324 323 322 321 321 318 313 310 309 308
310 312 312 310 309 309 310 310 310 312 311 310 311 311 312 316 318 317 319 322 323 323 322 325 331 332 329 334 333 330 333 336 335 335 336 335 334 333 333 333 332 333 332 333 336 336 334 335 335 333 333 333 334 335 335 334 334 334 332 332 333 333 333 332 332 332 331 331 331 330 329 328 327 326 325 324 323 322 322 320 320 317 310 307 307 306
310 313 314 310 309 310 310 311 310 311 313 311 310 311 311 313 317 317 316 321 324 321 322 330 337 338 337 338 337 334 336 338 337 336 334 334 334 333 333 333 332 333 333 333 336 336 335 335 336 335 334 333 333 335 334 334 334 333 331 331 332 332 332 331 332 331 331 331 330 329 329 327 326 325 324 324 322 322 321 319 318 315 307 304 304 303
313 316 316 310 309 310 309 310 310 310 313 312 309 311 312 312 319 324 319 320 323 321 323 332 340 344 339 336 338 338 338 339 338 336 334 334 334 333 332 333 332 333 333 333 335 336 334 335 336 336 336 334 333 333 333 333 334 333 331 330 331 331 331 331 331 331 331 330 329 329 328 326 325 324 323 322 321 321 320 318 317 312 304 302 302 301
313 313 316 312 309 310 308 309 311 309 310 312 310 310 314 314 316 321 321 321 322 321 324 329 335 340 338 336 338 338 337 338 337 336 335 334 333 333 333 332 333 333 334 334 335 335 334 335 336 336 336 336 335 333 333 333 333 332 330 330 330 331 331 331 331 331 330 329 328 327 326 325 324 322 322 321 320 319 318 316 315 310 302 300 301 300
314 312 315 313 309 310 310 309 311 310 309 310 310 310 316 318 314 314 319 321 321 323 327 328 332 338 339 337 338 338 337 337 336 336 336 334 333 333 332 333 333 334 335 335 335 335 334 334 335 335 334 334 334 333 332 333 332 331 329 330 330 331 331 330 330 330 329 328 327 325 323 322 321 321 320 319 319 318 316 315 314 307 301 300 299 299
312 312 317 317 311 309 310 310 310 310 309 309 311 312 312 313 313 314 318 319 320 326 330 332 335 340 341 337 335 336 336 335 335 336 335 334 333 333 333 333 334 334 335 335 335 334 334 334 334 334 334 333 332 332 332 332 331 330 329 330 330 330 330 329 329 329 328 326 325 323 322 321 320 319 318 318 317 316 315 314 310 303 300 299 298 298
312 314 320 320 311 308 310 311 310 310 310 310 312 314 313 313 316 314 314 317 321 325 329 333 336 339 340 336 334 335 335 334 335 334 334 334 333 333 333 333 334 335 335 335 335 334 334 334 334 333 333 331 332 332 332 331 330 330 330 330 330 329 329 328 328 327 326 324 322 321 320 319 318 318 317 316 316 315 315 313 306 301 299 299 298 298
314 315 317 316 312 310 311 310 311 311 312 311 312 313 314 318 318 315 318 322 319 318 323 327 329 336 341 335 333 335 334 333 333 333 333 333 332 332 332 333 334 334 335 334 334 334 334 334 333 332 332 331 331 332 331 331 330 330 330 330 329 329 328 328 327 325 324 322 321 320 318 317 317 317 316 315 314 314 313 309 302 299 299 298 298 297
314 314 313 316 316 312 310 311 310 311 311 311 313 313 314 318 320 321 329 329 320 317 321 319 320 336 344 334 332 334 332 332 332 332 332 331 332 332 332 334 335 334 335 334 334 334 333 333 333 332 331 331 331 331 330 330 330 330 330 329 329 328 328 328 326 324 324 322 320 318 316 316 315 315 314 314 313 312 310 304 299 299 299 298 298 297
314 316 314 315 315 311 311 312 309 310 312 314 317 315 313 319 320 321 326 323 318 320 324 320 321 334 339 332 333 336 334 335 333 331 332 331 331 332 332 334 335 334 334 334 333 333 332 332 332 331 331 331 331 331 329 329 329 330 330 329 328 328 328 328 326 325 324 322 319 316 314 314 313 313 313 312 311 310 306 301 299 299 299 298 297 297
316 321 318 316 318 315 313 314 312 312 312 315 319 315 313 317 317 320 323 319 317 321 321 323 328 334 336 331 335 339 337 336 333 331 332 331 331 332 333 334 334 334 334 333 333 333 332 331 332 331 330 330 330 330 329 329 329 330 329 328 328 329 328 327 326 325 323 320 317 314 312 312 311 311 311 310 309 306 302 299 299 299 298 297 297 296
318 323 322 322 323 317 315 318 319 315 312 313 316 313 315 319 319 322 324 321 323 323 322 329 335 336 337 334 335 338 337 336 335 331 331 331 331 332 333 334 334 333 333 333 332 332 331 331 331 331 331 330 330 330 330 330 330 329 329 328 328 328 327 327 326 324 321 318 315 313 311 310 309 309 309 308 306 302 300 299 299 299 298 297 296 296
317 320 323 324 321 315 317 322 319 314 314 316 314 314 318 323 322 320 323 327 327 321 323 334 338 337 338 336 334 336 336 335 334 331 331 331 331 332 333 334 334 333 333 332 332 331 331 331 331 331 330 330 330 329 329 330 330 329 329 328 328 327 326 326 325 323 320 317 314 313 311 309 308 307 307 307 304 301 299 299 299 298 297 297 296 295
319 319 322 321 318 316 317 320 316 313 315 317 316 316 319 323 321 317 326 336 328 319 327 335 335 339 340 335 331 333 334 333 333 331 331 332 332 333 333 333 333 332 332 332 331 332 331 330 330 330 329 329 329 329 328 329 329 328 328 327 327 326 326 326 324 322 320 317 315 312 310 310 309 308 307 305 303 301 300 299 299 298 297 297 295 295
320 324 325 319 318 319 318 319 317 313 313 314 315 318 320 325 324 321 329 334 325 324 337 340 338 343 340 332 329 330 330 331 331 331 332 332 332 333 333 333 332 332 332 332 331 331 331 330 330 329 329 328 329 329 328 328 328 328 328 326 325 325 326 325 324 322 320 317 314 312 310 309 309 308 307 305 303 302 301 299 298 297 297 296 295 295
317 325 328 326 323 320 320 324 324 318 316 313 312 315 319 322 322 318 323 327 323 326 336 339 340 341 335 330 329 327 327 330 331 331 332 332 333 333 332 332 332 332 332 331 331 331 330 330 329 328 328 328 328 328 328 327 328 328 327 326 325 325 326 326 324 322 319 316 313 311 310 309 309 309 307 305 303 302 301 299 298 297 297 296 295 294
318 322 327 332 330 320 321 327 327 324 321 315 313 316 318 320 321 319 322 326 325 329 335 335 336 337 334 332 330 328 328 331 330 330 331 331 332 333 333 332 332 332 331 331 330 330 329 329 329 328 328 328 328 328 328 327 327 327 327 325 325 326 326 326 324 320 317 315 312 311 310 310 310 309 307 305 303 301 300 299 298 297 297 296 295 294
324 327 324 328 330 322 323 331 330 324 319 317 324 328 321 320 323 321 320 323 326 333 340 338 334 334 333 332 334 332 331 331 330 330 331 331 332 332 332 332 332 332 332 331 331 330 330 330 329 329 328 328 329 329 328 327 327 327 326 326 326 326 326 325 322 318 315 313 311 311 310 310 309 307 305 303 302 301 299 298 297 297 296 296 295 294
325 331 325 324 328 323 327 335 330 321 320 324 331 334 325 319 322 321 320 324 327 330 334 335 335 334 332 332 335 334 331 331 331 330 331 332 332 332 332 332 332 332 332 331 331 330 330 329 329 328 328 329 329 328 327 327 326 326 326 326 326 325 325 323 319 315 314 312 311 310 310 310 308 306 304 303 302 301 300 298 297 297 297 295 294 294
324 327 325 323 323 322 330 336 325 320 328 333 331 329 326 323 324 324 327 329 327 324 324 328 335 339 334 330 330 329 328 329 330 330 332 332 332 333 332 332 332 331 331 331 331 330 330 329 328 328 328 328 328 327 327 326 326 326 325 325 325 324 324 321 317 314 312 311 310 310 310 309 308 306 304 303 302 302 300 298 297 297 297 296 294 294
327 329 327 321 318 319 325 329 328 326 328 329 327 325 323 322 320 320 321 320 322 325 325 326 334 337 330 325 326 328 327 328 329 330 331 332 332 333 332 332 332 331 331 331 330 330 330 329 329 328 328 328 328 327 327 326 326 325 324 324 324 323 321 318 315 313 312 311 310 310 310 309 307 306 304 303 302 301 300 298 298 298 298 296 294 294
325 331 328 320 318 322 322 325 332 331 323 324 327 324 320 319 321 325 324 319 321 325 324 324 330 332 327 324 325 328 328 329 331 330 330 331 332 332 332 332 332 332 331 331 330 330 330 329 328 328 328 328 327 327 327 326 326 324 323 323 322 321 319 317 315 314 313 311 310 309 310 309 307 305 304 302 302 301 299 298 298 298 297 296 294 293
320 323 325 320 318 323 327 328 331 329 326 330 334 329 321 317 322 330 328 322 324 322 318 322 328 330 329 328 327 328 330 334 336 333 330 331 331 331 332 332 331 332 331 331 330 329 329 328 328 327 327 327 327 327 326 326 326 324 322 322 321 320 318 317 316 315 313 312 310 310 309 309 307 305 304 302 301 300 299 299 299 298 297 296 294 293
318 320 328 327 320 322 330 331 326 325 327 331 334 331 321 314 318 323 321 323 329 322 314 319 326 327 327 328 327 329 333 339 339 332 329 331 331 331 331 331 331 331 331 331 331 330 329 328 327 327 327 327 327 326 326 326 325 324 322 321 321 320 319 317 316 315 314 312 311 310 309 309 307 305 304 302 301 300 299 299 298 297 297 295 293 293
318 320 326 327 323 322 326 326 323 323 325 327 330 328 318 313 316 317 319 328 329 320 316 318 322 323 324 325 327 331 334 337 336 331 328 331 331 331 332 331 331 331 331 330 330 329 329 328 327 327 327 327 326 326 326 325 324 323 322 321 321 320 319 317 316 315 314 312 311 310 309 309 307 306 304 302 301 300 299 299 298 297 296 295 293 293
318 320 322 326 327 324 320 318 319 324 325 324 326 322 315 314 317 320 328 331 323 319 321 319 318 322 325 325 328 331 331 330 329 326 327 330 331 332 332 331 331 331 331 331 330 329 329 328 327 328 327 327 326 325 325 324 323 322 321 320 321 321 319 317 316 314 313 312 311 310 309 308 306 305 304 302 301 300 299 298 297 297 296 294 293 293
318 317 318 322 323 322 323 321 318 321 323 321 322 319 314 316 324 329 330 326 320 322 325 320 318 323 326 326 328 329 328 327 327 326 328 329 331 332 331 331 331 331 330 330 330 329 329 328 327 327 327 326 326 325 324 323 322 322 321 321 321 320 319 317 315 314 313 312 311 309 307 306 305 304 303 302 301 300 299 298 297 296 295 294 294 293
321 318 319 321 319 319 323 322 318 322 325 321 320 321 317 319 327 329 325 322 323 325 324 321 320 321 325 328 329 328 328 328 327 327 327 328 330 331 331 332 332 331 331 331 330 329 329 328 327 327 326 325 325 324 323 323 321 321 321 322 321 320 318 316 315 314 313 312 310 308 306 305 304 303 302 302 300 299 298 297 297 296 294 294 294 293
318 320 322 323 321 321 322 323 322 325 326 321 320 323 323 322 323 323 324 325 327 325 324 325 322 319 321 325 326 327 329 328 327 327 327 328 330 331 331 331 331 331 331 331 330 329 329 328 327 327 325 325 324 323 322 322 321 321 322 322 321 319 317 316 314 314 313 311 309 308 306 306 305 303 302 300 299 299 298 297 296 295 294 294 293 293
317 319 320 322 322 321 323 327 326 321 319 321 323 324 326 326 324 325 326 327 326 326 326 327 325 322 321 319 321 326 328 328 328 328 327 328 329 330 331 331 331 331 331 330 330 330 329 328 328 326 325 324 323 323 322 322 321 322 322 322 320 319 317 315 314 313 312 311 309 308 307 306 305 303 301 299 299 298 298 298 296 294 294 293 293 293
316 314 318 323 324 321 320 323 322 319 319 322 323 323 325 326 326 327 327 326 326 327 326 326 327 326 323 321 321 324 326 327 328 327 327 328 328 329 331 331 331 331 331 330 330 329 328 327 326 325 324 323 322 322 322 321 322 322 322 321 320 319 317 315 314 313 312 310 309 308 307 305 304 302 300 299 299 299 298 297 295 294 294 293 293 293
318 316 321 326 326 327 328 326 322 320 320 320 321 323 324 325 325 326 327 327 327 327 326 327 327 327 326 325 324 323 324 326 326 326 327 327 328 329 330 330 331 331 331 330 330 329 328 326 325 324 324 322 321 321 321 322 322 322 321 321 320 318 316 315 314 313 311 310 309 307 306 304 302 301 300 300 300 300 299 298 295 294 294 293 293 293
319 318 323 327 328 329 331 326 320 319 320 320 321 322 322 322 323 324 325 327 327 327 327 327 326 326 327 326 326 325 325 325 324 325 326 327 328 329 329 329 331 330 330 330 329 328 327 326 325 324 323 322 322 321 321 321 321 320 320 320 319 317 316 314 314 313 311 310 308 306 304 302 301 300 300 301 301 300 300 298 296 295 294 293 293 293
319 319 320 324 327 325 323 321 319 320 322 322 320 321 321 322 322 321 322 325 326 327 328 327 327 327 326 326 326 326 325 326 326 325 325 326 327 328 328 329 330 330 329 329 328 327 327 326 325 324 323 323 322 321 320 320 320 320 320 319 318 316 315 314 313 312 311 309 307 305 303 302 301 301 301 301 301 300 299 297 296 295 293 293 294 294
322 324 322 323 327 327 326 324 322 324 327 324 320 320 321 321 321 321 321 322 324 327 327 327 327 328 327 327 327 326 325 326 327 326 326 327 327 327 328 329 329 329 329 328 327 327 326 325 325 324 323 323 322 321 320 320 319 319 319 318 317 316 315 314 313 311 310 308 306 304 303 302 302 301 301 301 301 300 299 298 296 295 294 295 296 295
320 323 324 327 330 330 326 322 319 322 325 323 320 321 321 320 321 322 321 321 324 326 326 327 327 326 327 327 326 326 326 326 326 327 327 327 327 328 328 328 328 328 328 327 326 326 325 324 324 324 323 322 322 321 320 320 319 319 318 317 316 315 314 314 313 311 309 307 305 304 303 302 302 302 302 301 300 300 299 297 296 296 297 298 298 297
Wind_Speed
12 5 6 12 14 17 16 12 9 2 2 5 4 4 7 6 4 5 7 6 8 8 6 6 7 8 11 9 6 13 16 13 15 18 20 22 23 26 26 23 24 26 29 30 31 32 33 34 34 34 34 35 35 33 31 29 28 27 25 25 25 24 23 23 23 22 22 22 21 20 20 19 18 17 17 15 14 13 11 10 11 11 10 8 8 7
10 7 12 16 12 11 9 7 7 7 4 3 3 3 4 5 5 6 6 5 5 6 1 3 8 8 9 6 4 10 11 10 16 20 22 25 24 26 26 24 25 27 28 30 32 34 35 35 35 35 36 35 33 31 28 26 26 27 26 26 26 25 25 25 23 22 22 22 20 20 20 19 19 17 16 15 14 12 10 11 11 11 10 9 9 9
7 11 13 10 5 6 7 7 9 8 8 3 3 4 2 3 3 5 4 2 1 3 1 4 9 6 5 4 4 7 7 8 14 17 20 25 25 26 28 27 28 27 29 31 34 36 35 33 32 33 34 32 30 27 26 25 26 26 27 27 26 25 26 25 23 22 21 19 19 19 19 19 18 17 16 15 13 11 11 12 11 11 11 10 10 10
7 9 7 8 7 9 7 7 10 8 7 5 4 5 2 4 2 3 3 4 6 3 5 7 7 4 3 4 3 5 6 6 10 11 13 20 25 28 31 31 32 33 34 34 34 33 32 30 31 31 31 30 28 26 26 26 26 26 27 26 25 25 25 25 24 21 19 18 18 18 17 17 17 17 16 13 12 12 13 12 12 12 12 12 11 11
5 4 8 11 8 10 8 6 9 7 6 6 5 6 3 4 2 3 3 3 5 5 6 9 5 1 3 4 3 4 6 7 9 9 11 17 21 24 26 28 32 35 36 35 32 31 30 31 31 31 31 29 28 28 27 27 27 26 26 26 25 24 24 23 22 19 17 19 19 18 17 18 17 16 14 13 13 14 14 13 13 13 13 13 13 13
6 4 10 14 9 10 9 7 9 8 5 5 5 7 7 5 3 2 4 4 5 3 1 5 3 2 3 5 5 5 6 8 9 11 13 17 18 20 22 25 28 30 33 33 31 31 31 32 31 31 31 31 29 29 28 27 27 26 25 25 24 23 22 21 20 17 17 18 18 18 19 18 17 16 14 13 14 14 13 13 13 14 14 14 14 15
4 7 6 11 12 11 10 9 9 9 6 4 5 9 9 6 3 2 5 4 3 3 4 3 3 3 3 6 6 7 7 8 9 11 14 17 18 20 23 26 29 29 31 33 31 29 31 32 32 33 33 32 31 30 28 27 26 25 24 23 23 21 21 20 20 18 17 17 17 17 17 16 15 14 13 14 14 14 13 14 14 15 15 16 16 15
6 9 7 7 12 11 11 11 9 10 7 3 6 11 10 7 5 4 4 3 2 3 2 1 3 2 3 6 7 9 9 8 9 11 13 17 20 22 25 28 30 31 32 35 34 29 29 33 34 34 34 33 31 29 28 27 26 24 23 22 22 21 20 21 20 19 18 17 17 17 16 14 13 12 12 14 14 14 14 15 15 16 15 15 14 14
7 11 9 7 10 10 11 10 9 10 6 4 7 11 10 8 7 6 4 3 1 4 1 4 3 3 3 4 7 9 9 10 13 15 14 17 22 25 27 29 30 31 32 36 38 33 29 32 34 33 33 32 31 29 27 26 26 24 23 21 20 20 21 21 20 19 18 17 16 16 15 14 13 12 13 14 14 14 15 15 15 14 12 11 11 11
6 14 12 7 8 9 9 7 8 10 6 4 6 8 6 5 5 5 5 3 1 2 5 7 5 3 3 3 7 9 9 11 14 13 13 18 25 27 28 30 30 30 31 33 37 36 31 30 31 32 31 31 30 28 26 26 25 24 22 21 19 19 20 20 20 19 18 17 16 15 15 14 14 14 15 16 15 15 16 15 13 11 10 9 8 8
4 13 15 8 8 6 6 6 8 11 8 4 6 5 4 3 1 2 2 2 2 3 7 9 10 7 3 4 7 9 11 16 14 11 12 17 25 29 29 31 31 31 31 31 32 34 31 29 29 29 29 29 28 26 26 26 25 23 22 19 19 20 20 20 20 20 18 17 16 15 14 14 15 16 17 17 17 16 15 13 11 10 9 8 7 6
8 8 9 7 10 8 7 6 7 9 9 4 5 5 3 2 3 3 3 3 3 7 7 8 11 9 6 4 7 13 15 15 14 13 15 19 25 30 30 31 32 32 32 29 28 30 31 30 29 28 28 28 26 26 26 26 24 23 21 20 20 22 22 21 21 20 19 18 17 15 15 15 16 16 17 17 17 16 13 11 9 9 8 7 6 5
8 6 3 3 12 13 7 5 5 6 8 6 5 6 5 1 1 1 1 1 4 7 5 8 11 7 6 6 10 18 17 13 15 19 21 24 29 32 32 32 33 33 31 29 28 29 30 31 31 30 29 28 27 26 26 26 24 22 21 21 23 24 23 23 22 21 20 19 18 16 16 16 17 17 17 17 16 13 11 9 9 9 8 6 5 5
5 4 3 4 8 14 11 7 6 6 8 9 6 7 7 4 4 5 4 2 4 6 4 6 9 4 4 5 9 16 19 20 22 24 24 27 29 32 33 33 33 32 31 29 29 30 30 31 31 30 29 29 28 27 27 25 23 23 23 23 24 25 24 23 23 22 21 20 18 18 18 18 18 18 17 15 13 11 9 8 8 7 6 6 6 7
5 3 6 7 5 12 14 9 7 6 7 8 5 6 6 4 6 6 5 4 4 4 3 2 5 4 3 4 7 11 18 21 19 16 17 20 22 26 28 29 31 31 31 29 28 31 31 30 29 28 28 29 28 28 27 24 23 24 25 25 25 25 24 24 23 22 21 20 20 20 19 19 18 17 15 13 12 10 9 8 8 7 6 7 8 8
6 5 6 7 6 10 12 8 7 8 6 5 5 6 5 6 5 2 3 6 4 2 1 2 3 4 4 4 7 4 12 13 12 12 15 18 21 24 25 27 30 30 30 29 29 31 31 30 29 29 29 29 29 29 27 24 25 27 27 27 26 25 25 24 23 22 21 20 20 19 18 18 17 16 14 13 12 10 9 8 9 7 8 9 9 9
6 5 4 5 7 9 12 10 8 8 6 3 4 6 5 5 6 2 2 2 3 3 3 1 2 4 2 4 6 2 9 9 11 13 16 21 24 26 27 28 30 30 31 31 30 32 32 31 32 33 31 29 30 29 27 25 28 29 28 28 27 26 26 25 23 22 21 20 19 18 17 17 16 15 14 13 12 10 10 10 10 7 10 11 10 10
6 3 5 8 9 9 12 14 8 7 9 5 6 7 4 4 4 2 2 1 3 3 4 1 2 3 1 2 3 4 9 9 10 11 13 18 23 25 27 29 29 29 30 31 32 32 32 32 34 34 33 31 31 29 26 27 29 28 27 26 26 26 25 23 22 21 20 19 18 17 16 16 15 14 13 13 12 11 12 12 10 8 12 12 11 10
3 2 6 7 10 6 7 11 6 7 9 7 6 7 6 3 3 1 3 2 1 2 3 3 2 3 4 4 3 7 11 11 11 11 12 16 21 25 27 28 29 29 29 31 33 34 34 34 33 32 32 31 31 28 27 29 30 27 25 24 24 24 23 21 20 19 18 17 16 16 16 15 14 14 13 13 12 12 13 12 9 10 13 12 11 10
1 2 3 4 9 7 3 5 6 8 9 4 4 6 6 5 5 4 3 3 3 3 2 1 3 3 5 5 9 13 15 15 14 13 13 17 24 27 28 30 31 32 32 33 35 36 37 37 35 34 34 31 28 27 28 30 29 26 25 25 24 24 22 21 19 17 17 17 17 17 16 15 14 14 13 13 12 13 13 11 9 12 13 12 11 9
2 1 3 3 3 7 5 6 9 10 9 5 4 5 6 4 3 4 3 2 3 3 3 2 1 5 6 5 11 15 15 16 17 17 15 19 26 29 30 32 32 33 34 34 36 37 38 37 35 35 35 32 30 30 30 31 29 27 26 26 26 24 22 20 18 17 18 18 18 17 16 15 15 14 14 13 13 13 13 11 11 14 13 12 10 9
1 2 2 2 2 7 9 7 8 9 8 7 6 5 6 5 4 4 4 1 2 3 3 4 2 7 6 5 10 13 13 15 19 19 16 20 28 31 32 33 33 34 35 36 36 36 37 36 35 34 32 31 34 34 32 31 30 29 28 27 25 22 20 18 17 18 18 18 17 16 15 15 15 15 15 14 14 13 12 11 14 14 13 12 10 9
4 1 0 2 4 6 6 3 6 10 8 6 6 5 4 4 5 6 5 3 1 2 2 4 2 6 6 5 8 11 11 15 21 22 17 20 28 30 31 32 33 33 34 35 36 36 36 36 35 34 31 33 36 33 31 31 30 30 29 27 24 21 18 17 17 18 17 17 16 16 16 16 16 16 15 14 14 13 12 14 16 15 13 12 10 9
3 1 2 4 4 1 1 3 4 9 8 4 4 4 5 5 5 6 5 4 4 4 3 3 2 5 6 4 2 5 6 9 15 18 15 18 23 27 30 32 33 33 33 34 35 34 35 35 35 34 33 34 37 34 31 31 30 31 29 26 23 20 17 17 17 17 17 16 16 16 16 17 17 16 16 15 14 13 15 16 16 14 12 10 9 8
6 2 1 2 2 3 3 2 3 5 6 5 4 4 6 6 7 5 2 3 4 5 6 6 4 6 5 3 2 5 6 5 7 13 15 18 23 27 30 31 33 34 33 34 34 34 35 37 37 37 35 36 37 36 32 30 31 32 29 25 23 19 18 18 18 18 18 17 16 15 15 15 16 16 16 15 15 15 17 17 16 14 12 10 9 8
7 2 3 3 2 4 6 5 4 4 5 5 5 7 8 6 8 5 3 4 4 3 5 6 5 6 6 3 5 6 7 7 7 12 17 20 25 29 31 32 33 34 35 36 37 36 36 38 38 38 38 38 38 36 34 32 32 32 29 26 22 20 20 20 19 19 18 16 14 14 14 15 16 16 16 16 17 17 18 17 15 14 11 10 9 9
3 1 3 6 6 7 7 6 4 3 5 5 5 8 6 4 6 6 4 5 5 4 4 5 6 5 6 2 6 7 8 9 8 12 17 21 25 28 30 31 32 34 36 37 37 37 37 38 39 39 39 39 39 38 38 36 34 32 30 26 23 22 22 21 20 18 16 15 14 15 16 16 16 17 17 18 18 18 18 17 15 13 11 10 9 9
2 3 4 6 7 8 8 6 4 5 6 6 7 8 6 6 8 7 4 6 6 6 4 7 5 7 7 7 9 9 10 10 9 13 20 25 28 30 30 30 30 32 34 36 37 37 38 39 39 39 39 40 39 39 38 37 34 32 30 26 22 22 22 21 20 18 16 16 16 16 17 17 16 17 18 18 19 18 18 17 15 12 10 10 10 10
2 3 5 3 3 5 5 5 5 6 6 6 9 9 7 8 9 8 7 7 7 8 6 7 8 9 9 9 12 13 14 15 15 17 21 25 28 29 30 30 30 32 34 36 38 39 39 40 40 41 41 41 40 38 36 34 33 32 31 27 23 21 22 22 20 18 17 18 18 18 17 17 16 17 18 18 19 19 18 16 14 12 10 10 11 11
2 3 4 1 0 1 2 4 3 7 6 5 8 9 9 10 10 8 6 5 6 6 5 7 10 10 9 8 9 10 12 16 18 20 22 26 29 30 31 31 31 33 36 38 39 40 41 41 41 42 42 42 41 39 36 34 34 34 33 29 24 22 23 23 21 20 20 20 20 19 18 17 17 17 18 19 19 19 18 16 14 12 11 10 11 11
2 3 4 2 2 2 3 2 2 5 7 5 3 4 7 8 6 4 3 3 3 1 1 7 8 8 7 3 4 5 11 17 18 20 24 27 31 32 31 32 33 34 37 38 39 40 40 40 41 42 42 42 41 39 36 35 35 35 34 30 25 24 26 25 23 21 21 21 21 19 19 19 19 19 19 20 20 19 18 16 14 13 11 11 11 12
2 2 3 4 4 3 4 4 4 4 8 5 0 2 6 7 4 4 4 4 6 4 4 7 5 7 6 3 8 10 14 16 16 20 24 26 31 34 33 34 35 36 38 38 39 39 40 41 42 43 43 43 42 39 36 34 34 35 37 34 28 28 29 27 24 22 21 22 21 21 21 21 20 20 21 21 21 20 18 16 15 13 12 11 12 12
3 2 1 3 3 4 6 4 4 5 7 1 4 6 8 5 3 3 1 3 6 7 7 5 6 6 4 6 8 9 10 11 15 23 28 29 33 36 36 37 39 40 40 41 41 42 42 43 44 44 44 43 42 40 37 35 33 33 35 34 31 31 31 27 25 23 22 23 23 23 23 22 21 22 23 22 21 20 18 17 15 13 12 12 12 12
2 4 2 2 3 3 7 6 5 4 4 5 6 5 7 6 6 6 4 5 7 5 4 3 3 3 6 8 10 11 13 19 27 33 37 37 37 37 36 38 40 41 41 41 42 43 43 43 42 42 43 43 42 39 38 37 33 31 32 34 33 33 30 27 25 23 23 24 25 24 24 23 23 23 24 23 21 20 18 17 15 13 12 12 12 13
1 2 2 1 2 2 4 6 5 2 6 7 6 4 5 5 8 8 2 4 4 4 2 2 4 7 9 11 15 20 24 29 30 33 37 40 42 42 40 39 39 39 40 41 41 42 41 41 41 42 42 42 41 39 38 38 35 32 33 35 34 31 29 28 25 24 24 25 26 26 25 24 24 25 24 23 21 20 19 17 16 14 13 12 13 13
4 3 2 2 1 1 2 5 2 5 7 6 5 3 3 2 5 7 2 5 2 5 4 5 7 10 10 9 10 14 16 18 18 24 32 37 41 44 44 43 43 42 43 44 44 44 44 44 44 44 44 43 41 40 40 39 35 33 33 34 33 32 30 28 25 24 25 25 26 27 26 25 26 26 25 24 23 21 20 19 17 15 13 13 14 14
6 4 2 3 1 1 3 1 2 2 3 4 3 2 4 2 4 8 3 3 4 5 6 5 6 8 7 4 5 8 10 11 8 12 25 33 37 41 42 42 43 43 43 45 45 44 45 45 45 45 45 43 42 41 41 39 37 35 34 34 34 33 30 27 25 24 24 25 27 28 27 26 26 26 26 25 24 22 21 19 17 15 14 14 15 15
3 3 4 2 0 2 4 1 3 3 1 4 6 6 3 2 5 6 5 1 6 5 7 7 7 9 8 7 10 14 14 9 2 9 23 33 36 37 38 39 40 40 41 42 42 42 42 43 43 43 43 42 42 42 41 40 39 38 37 36 35 32 29 28 26 24 24 25 27 27 27 26 26 27 26 26 24 23 21 20 18 16 14 14 15 15
4 3 5 4 1 2 3 2 1 1 3 6 8 9 6 0 5 5 5 2 7 5 6 8 8 9 10 12 17 16 11 5 4 12 26 35 37 38 39 39 39 39 40 40 40 41 41 42 42 41 42 42 42 42 41 40 39 39 38 36 33 31 30 30 27 25 25 25 26 27 27 26 26 27 27 26 25 23 21 20 19 17 15 15 16 15
5 4 4 3 1 2 3 1 1 3 4 5 7 9 9 4 5 7 3 6 8 4 4 8 10 10 11 17 20 12 7 9 10 19 29 35 38 39 40 40 40 40 40 40 40 39 39 40 41 42 42 43 42 42 41 40 39 39 38 35 32 31 31 30 27 26 25 24 25 26 26 25 26 27 27 26 25 23 22 21 20 18 17 17 17 16
3 3 3 2 3 2 3 1 2 3 4 5 7 10 10 6 4 5 5 8 5 2 1 6 14 16 15 19 18 12 17 24 22 23 27 32 35 37 38 39 39 38 38 39 39 39 39 39 40 41 42 42 42 41 41 40 40 39 37 34 30 28 29 28 27 26 24 24 25 26 25 25 26 27 27 26 24 24 23 22 20 19 19 19 19 18
2 1 2 3 3 1 1 2 1 4 4 4 9 11 6 3 1 4 6 3 1 1 2 3 13 19 20 23 23 23 28 29 22 18 20 27 34 37 37 38 37 37 37 37 37 39 39 39 40 41 41 42 42 41 41 41 40 38 36 31 26 26 28 29 28 26 24 24 25 25 25 26 26 27 27 26 25 25 24 22 21 20 20 20 20 19
4 3 1 2 3 2 2 3 2 3 4 4 7 6 3 2 4 5 3 1 1 1 4 4 9 17 21 24 28 30 27 22 17 14 16 24 32 35 37 39 39 38 38 38 38 39 39 39 40 41 42 42 42 41 41 40 39 38 35 28 24 26 30 30 28 26 25 25 25 25 25 26 27 27 27 26 25 25 24 23 22 21 21 21 21 21
3 4 2 3 3 3 3 1 2 5 4 5 4 1 1 1 2 2 3 3 2 3 5 5 5 12 19 21 25 30 29 23 19 15 14 20 29 34 36 38 38 38 38 38 38 38 38 38 39 40 42 42 42 42 41 40 39 38 34 28 25 28 32 31 28 26 26 25 25 25 25 26 27 27 27 26 26 26 24 23 23 22 22 21 22 22
2 3 4 3 2 4 4 5 4 4 3 3 1 1 2 5 5 5 5 6 6 7 7 7 5 4 13 18 22 26 29 27 25 21 18 21 27 32 35 37 37 37 37 37 37 37 37 38 38 40 42 42 42 42 41 40 39 37 33 30 28 30 33 31 28 27 26 26 26 26 26 27 28 28 27 27 27 27 25 25 24 24 23 23 24 24
2 1 2 2 2 2 1 1 1 1 1 3 4 5 8 12 11 9 9 9 9 9 10 10 10 8 3 11 19 24 26 26 25 23 21 21 24 29 34 36 36 36 36 37 37 37 37 37 38 40 42 41 41 41 40 39 37 33 31 30 30 32 33 31 27 26 26 26 26 26 27 28 29 28 28 27 27 27 25 25 25 25 25 25 26 25
3 2 3 3 3 3 1 1 1 2 2 3 6 9 11 13 12 12 11 9 8 9 10 10 10 11 9 3 5 14 20 23 23 22 21 22 25 30 33 35 36 36 36 37 37 36 37 38 39 40 41 41 41 40 38 37 35 33 31 30 30 33 34 30 27 26 26 26 27 28 29 29 29 29 29 28 28 27 26 26 26 26 26 26 27 26
2 3 3 3 2 2 3 5 4 1 2 3 6 9 11 11 10 10 10 9 8 7 7 7 8 8 8 8 5 1 7 13 18 22 23 23 26 29 32 34 34 34 34 35 36 36 37 38 39 39 39 40 40 39 38 36 34 34 33 32 33 35 33 29 27 26 26 27 28 29 29 29 29 30 30 30 29 28 27 27 26 27 27 27 27 27
2 3 1 4 3 2 1 4 2 2 3 3 6 8 9 9 8 8 9 7 6 6 6 5 6 6 6 6 5 3 2 4 9 15 20 23 25 27 29 30 31 32 33 35 36 36 37 37 37 37 38 38 38 38 37 36 35 34 32 33 35 36 32 29 27 26 27 28 29 30 30 30 29 30 30 30 30 29 27 26 26 27 27 26 25 24
2 1 1 4 5 2 4 5 5 4 1 2 5 7 7 7 6 6 7 7 6 6 5 4 4 4 4 4 4 3 2 2 5 10 15 19 22 24 26 29 31 32 33 34 35 36 36 35 35 35 36 37 37 36 36 35 35 34 32 33 36 35 31 29 28 28 29 30 30 31 31 30 30 30 30 30 30 29 27 26 26 26 26 24 23 22
3 3 3 5 5 4 5 8 8 5 4 5 6 7 6 5 4 5 7 7 6 6 5 4 4 4 2 2 2 2 3 2 4 9 13 16 20 22 24 26 28 30 32 33 34 35 35 35 34 35 35 35 35 35 35 34 34 33 33 35 36 34 31 30 30 31 31 31 31 32 31 31 31 31 31 31 30 29 28 27 28 27 26 23 21 21
Wind_Direction
175 160 188 201 204 203 201 191 196 260 86 131 121 141 163 175 219 221 231 232 167 167 215 184 155 157 163 168 166 169 173 174 173 171 174 177 179 182 184 186 185 184 186 187 188 190 190 192 192 190 189 191 193 193 192 192 193 195 194 193 197 202 205 205 204 207 209 210 210 205 204 207 208 213 217 215 214 215 215 220 227 232 236 240 242 248
172 197 216 210 207 196 185 159 179 246 262 121 112 148 170 185 215 230 227 239 187 163 242 138 137 159 165 151 150 165 172 186 183 178 179 180 178 180 182 182 181 182 184 186 188 189 190 191 190 189 190 192 192 190 191 194 197 197 197 201 207 209 208 208 212 215 214 213 211 205 202 206 208 212 217 217 216 217 218 223 228 234 242 248 252 258
188 221 218 196 160 135 148 155 166 217 241 212 152 138 183 218 217 251 251 331 16 140 184 150 136 150 155 118 134 169 179 197 196 191 185 180 177 180 183 181 180 181 183 186 189 190 191 192 191 191 191 191 191 191 194 196 197 198 201 206 211 212 210 211 217 218 215 214 212 208 206 207 209 211 215 220 221 221 224 229 235 240 246 253 259 267
201 225 190 142 137 146 159 168 162 191 229 224 176 138 218 242 167 221 249 23 27 91 140 134 122 130 126 100 127 177 184 187 201 206 195 186 183 183 185 183 182 183 184 186 189 191 193 194 193 191 190 190 192 195 196 196 198 201 204 208 209 211 214 216 219 215 209 210 208 206 207 209 211 213 214 217 219 222 227 234 240 243 248 255 262 268
235 240 147 140 159 172 176 176 165 178 212 219 190 151 188 230 196 205 188 93 42 47 106 109 87 47 150 153 167 174 173 175 194 204 202 200 195 190 189 188 187 188 187 184 185 190 194 196 194 191 190 192 194 196 199 200 202 203 204 207 208 213 217 219 221 213 204 205 203 200 201 204 208 211 214 214 216 223 229 236 241 245 252 258 263 267
258 259 157 153 176 184 186 195 184 179 189 221 204 168 175 192 216 221 169 138 74 8 268 115 92 291 178 188 194 168 168 177 190 202 206 205 202 197 194 192 193 192 189 185 184 189 196 198 194 191 193 194 195 198 202 204 204 203 203 206 209 212 214 216 219 215 208 208 207 204 203 204 206 208 213 216 221 231 240 245 248 253 260 264 267 270
232 245 187 164 178 184 199 210 198 178 165 221 209 171 173 173 185 198 169 162 140 210 238 130 145 219 206 213 199 172 178 184 189 205 211 206 202 200 197 195 194 194 192 188 185 189 198 200 195 193 195 196 198 200 202 203 203 203 204 206 207 208 210 212 213 213 210 209 208 209 211 212 212 214 218 220 225 234 243 249 254 259 265 268 270 272
180 215 225 189 178 181 207 212 199 177 159 229 205 162 166 172 186 203 165 174 194 161 160 123 132 148 213 218 187 171 179 184 195 211 214 207 205 203 200 199 197 195 193 190 188 188 197 201 196 195 197 198 200 200 201 203 202 203 205 205 204 205 208 209 208 208 208 208 208 209 212 215 216 223 229 229 229 234 242 250 255 260 265 268 268 268
168 201 218 194 186 195 207 201 179 167 163 228 186 150 161 175 184 201 185 205 181 101 179 239 150 126 247 222 165 172 186 191 202 211 210 204 205 206 203 202 200 198 196 193 191 189 194 199 198 198 199 199 200 200 202 204 203 204 206 205 204 204 204 204 203 205 206 208 211 211 213 214 214 221 230 234 237 242 248 255 259 265 272 275 272 267
176 201 205 185 200 210 196 183 161 161 187 209 149 118 125 152 171 186 193 205 118 92 229 221 175 164 269 226 170 179 197 205 208 209 206 201 204 208 205 203 201 200 199 198 196 193 192 194 196 198 200 198 199 201 202 204 204 205 205 205 205 203 200 199 200 204 206 207 212 214 214 215 217 221 228 234 241 249 256 262 267 276 284 286 278 268
232 201 200 196 210 198 156 165 161 165 188 165 113 100 87 61 57 126 136 105 101 255 236 201 182 183 239 231 188 190 204 206 203 197 197 199 203 207 206 203 201 199 199 198 198 198 194 191 191 194 198 200 200 201 202 204 205 204 204 204 202 199 196 197 200 203 205 205 208 214 216 219 225 229 235 240 246 254 261 266 275 284 287 284 269 255
263 214 204 199 192 172 141 173 170 163 184 165 115 129 117 356 350 34 25 61 165 243 243 194 181 184 219 234 194 207 217 208 198 195 193 194 200 203 203 202 202 200 199 197 197 197 195 194 192 193 198 201 201 202 203 205 203 201 202 200 196 195 195 198 201 200 202 203 204 210 217 222 227 234 242 246 250 255 261 270 285 292 288 275 249 224
250 240 246 201 184 179 162 174 172 162 185 180 127 132 150 191 227 200 233 153 217 246 238 181 170 183 234 237 204 209 215 207 202 203 196 192 194 197 197 199 201 200 198 197 196 194 192 193 195 197 200 201 201 203 205 204 201 198 198 197 195 195 196 197 200 200 201 203 204 207 215 220 226 233 240 245 249 254 263 278 295 299 286 261 223 189
243 276 249 210 188 186 178 175 183 180 184 184 163 155 167 160 166 198 210 218 243 255 252 173 162 190 270 258 222 210 206 205 208 207 200 195 193 192 193 195 199 200 197 194 193 191 190 191 194 197 199 200 200 202 207 206 199 195 194 195 197 198 197 197 199 201 202 203 203 206 213 220 228 234 239 244 249 254 263 279 298 298 271 231 196 174
201 242 215 205 190 178 184 190 172 148 165 184 155 134 161 161 168 192 195 199 229 251 273 138 156 191 203 242 256 223 206 203 203 202 194 192 192 189 190 193 197 199 196 192 191 190 190 191 195 196 196 198 199 201 207 206 198 195 194 195 198 200 199 199 201 203 203 202 203 208 215 223 231 237 239 243 246 251 261 276 296 289 238 201 183 170
192 239 233 214 207 175 181 191 143 125 161 187 120 125 186 182 153 165 182 178 181 203 233 153 188 222 201 253 301 241 198 184 165 164 164 171 181 184 189 194 196 197 195 192 189 189 192 194 196 196 194 197 199 200 205 204 197 197 198 196 199 203 203 202 202 203 204 205 208 214 220 227 233 236 239 240 241 246 256 274 292 273 215 191 178 169
183 253 273 194 210 197 176 173 164 160 165 162 155 173 193 154 124 107 219 175 113 167 246 187 212 294 297 295 330 121 170 161 145 152 158 165 175 182 189 194 195 195 193 192 188 187 190 191 191 192 194 198 199 201 204 200 195 199 203 201 200 203 203 202 203 205 206 209 214 220 226 232 236 238 240 240 240 245 255 275 286 248 202 187 177 173
161 255 275 179 200 223 177 166 183 181 151 146 196 186 114 91 101 93 205 316 69 175 266 309 195 255 208 247 334 118 157 165 160 159 161 168 176 184 191 194 195 195 192 192 191 188 188 188 187 188 192 197 201 203 203 197 195 201 207 205 202 202 203 203 206 208 211 215 221 228 233 236 237 236 238 237 240 247 256 273 276 224 195 185 178 177
154 232 279 192 186 211 166 161 187 201 176 168 180 161 124 140 194 152 171 195 136 181 270 325 304 247 198 195 186 166 174 177 172 169 169 176 183 187 190 192 194 194 191 189 189 190 191 190 190 191 191 192 194 199 202 197 197 203 207 206 205 204 205 208 210 212 216 223 230 235 236 236 234 233 235 235 239 247 256 269 259 210 193 184 179 180
357 144 277 228 178 165 141 167 189 206 204 182 127 151 165 170 182 188 167 166 178 182 206 313 334 273 234 209 186 184 184 177 174 179 185 189 189 188 188 189 190 191 189 186 185 189 191 191 194 198 198 197 196 199 201 199 198 203 205 204 204 205 206 209 213 218 225 230 234 235 233 231 230 231 233 235 240 248 259 264 238 202 191 184 181 184
336 171 244 285 168 158 187 205 192 193 196 186 159 172 188 172 146 188 187 139 147 156 165 166 266 263 250 204 189 193 186 179 180 184 192 195 189 188 189 188 188 188 188 186 185 185 186 189 193 195 198 203 203 200 200 200 202 204 205 204 204 206 209 212 218 226 230 232 234 234 233 232 232 232 234 235 238 248 258 248 214 196 190 186 185 187
203 208 220 278 173 179 208 214 188 184 175 168 181 191 185 163 123 163 214 232 121 157 175 156 193 262 255 190 189 196 187 184 186 185 192 193 187 187 189 188 187 187 186 186 185 183 183 188 191 190 196 201 196 194 197 200 203 204 205 205 205 208 213 219 225 229 230 232 234 235 236 236 234 233 233 234 236 245 247 223 199 193 192 189 187 187
168 185 299 261 228 203 225 243 166 167 146 136 187 195 160 145 126 150 200 228 166 174 148 125 173 261 261 212 195 194 191 193 191 189 189 187 185 185 185 186 187 187 186 185 185 185 186 189 191 191 195 195 190 192 198 199 202 206 205 205 207 210 215 222 228 230 231 234 237 240 240 237 235 233 231 232 235 238 224 202 193 194 195 194 191 188
172 217 274 284 294 204 255 6 136 156 137 135 212 185 147 169 166 157 178 184 180 192 148 117 230 264 281 284 212 168 174 189 193 193 184 175 179 181 181 183 185 185 185 184 184 187 188 190 191 190 192 194 190 193 201 204 206 207 205 206 210 213 218 227 232 234 237 240 243 243 239 235 231 227 227 229 229 220 203 194 193 194 196 199 200 195
192 191 184 266 359 114 151 88 116 165 168 173 206 190 171 166 145 133 132 146 182 207 160 143 216 250 281 319 85 119 125 134 174 184 179 171 173 177 180 182 183 183 183 182 183 186 187 189 190 191 193 196 194 196 202 208 208 206 206 209 212 216 227 235 238 240 245 248 246 239 231 225 219 216 218 220 213 202 195 194 196 196 197 203 206 201
187 179 141 178 154 156 181 182 173 181 180 179 185 185 184 160 145 150 130 141 197 220 154 153 202 250 296 356 114 130 129 129 148 165 173 175 175 177 179 179 180 180 181 182 183 185 186 187 189 191 193 195 199 201 204 207 208 207 208 209 213 224 235 238 240 242 246 246 240 230 220 211 208 206 208 206 199 195 195 198 200 201 200 202 204 201
145 211 167 174 181 184 190 211 224 161 149 177 174 162 159 143 140 132 115 161 190 165 169 209 197 215 275 255 153 161 156 155 159 160 168 175 176 178 179 178 177 179 181 182 182 184 186 186 189 193 194 197 201 204 204 204 206 207 207 206 211 225 233 236 238 241 242 239 231 223 214 206 203 200 197 196 195 196 198 201 204 206 202 196 196 195
50 291 227 186 198 206 191 200 209 152 151 175 158 147 149 141 133 130 157 198 164 131 223 252 189 183 233 220 190 182 166 165 175 175 174 173 173 176 177 176 176 177 179 181 182 185 187 188 191 195 198 201 203 203 201 202 205 209 209 207 212 223 230 234 237 239 238 233 227 221 212 203 198 195 192 194 197 199 202 204 206 206 202 194 190 190
97 281 240 200 237 231 203 212 195 150 154 168 158 158 158 151 154 161 193 206 159 152 221 227 177 192 221 211 199 190 179 180 182 177 172 169 169 172 173 174 176 177 179 182 185 188 190 191 193 195 198 200 202 202 203 204 207 210 209 208 213 224 231 234 236 238 237 232 226 219 209 200 195 193 193 196 199 202 204 205 205 204 200 194 189 188
123 261 244 195 355 260 231 249 191 135 138 165 173 172 164 164 173 174 190 203 165 167 201 176 177 215 229 205 203 202 183 169 160 158 161 164 168 171 173 176 178 179 182 186 189 192 193 193 194 194 196 199 201 204 206 209 211 210 207 206 210 221 229 233 235 238 237 232 224 214 204 197 195 195 196 198 201 204 205 206 205 201 198 195 191 189
120 242 257 97 89 310 311 344 62 122 136 156 180 163 146 149 153 153 169 175 144 157 164 145 172 235 249 186 137 135 143 142 146 158 166 169 171 172 174 178 181 183 187 190 192 194 194 194 193 194 197 200 203 205 209 213 214 211 209 207 211 222 229 232 236 237 234 227 218 208 200 196 197 198 200 201 203 206 207 209 208 203 198 197 194 191
136 224 305 59 76 298 308 34 45 86 108 115 145 133 139 145 155 178 192 180 170 158 104 111 161 239 252 135 111 129 147 152 161 168 169 172 175 176 178 181 184 188 190 191 193 193 194 195 195 197 199 201 204 206 210 214 214 214 212 209 212 223 226 229 235 234 228 220 212 204 199 199 200 201 201 202 204 206 208 211 212 209 204 200 196 194
152 126 19 74 90 282 295 11 50 87 97 124 244 190 167 174 181 176 196 195 177 152 128 147 201 222 194 140 134 146 157 165 176 177 175 177 179 181 184 185 188 191 193 194 195 196 197 198 198 199 201 203 207 210 214 215 214 218 218 214 214 220 222 227 231 227 219 213 207 203 202 202 202 201 200 200 203 206 209 212 215 216 211 204 199 195
157 121 132 122 107 266 294 351 42 98 151 230 241 190 168 175 170 167 197 218 195 161 148 184 190 152 151 157 158 162 177 189 190 186 183 182 182 185 189 191 192 194 195 196 198 199 200 200 200 201 203 207 210 213 215 215 215 219 220 218 217 219 221 225 225 218 212 209 206 205 205 204 203 200 199 201 205 208 211 214 216 216 213 208 203 198
124 114 126 92 92 268 315 29 62 187 222 244 264 237 192 173 162 161 200 259 201 164 154 166 155 162 181 189 180 177 188 194 191 187 187 187 188 188 190 193 195 196 196 198 200 201 201 201 201 202 205 208 211 213 215 214 214 218 219 217 217 218 221 223 219 212 210 209 207 206 206 205 203 201 201 204 207 210 212 214 214 212 211 208 203 198
131 138 114 79 90 273 21 64 139 226 255 284 296 219 169 94 112 126 43 324 229 173 186 207 201 192 193 199 188 180 184 183 179 186 190 191 193 193 193 196 197 198 200 202 202 204 204 204 204 205 207 209 211 214 215 213 214 218 219 218 218 219 220 219 215 211 210 210 208 207 207 206 203 202 204 206 208 210 211 213 213 211 208 204 199 196
132 140 101 66 86 139 100 109 252 293 322 314 311 173 162 145 149 145 135 295 257 190 184 210 221 198 175 159 145 138 138 135 143 194 199 196 198 199 200 202 203 204 207 207 207 208 208 207 207 207 209 210 211 213 214 213 214 216 217 216 216 217 217 217 216 214 213 212 210 208 208 207 205 204 206 207 208 210 212 214 215 213 210 205 199 195
122 141 130 120 89 88 92 40 350 26 341 259 264 268 260 202 185 154 123 237 269 236 189 196 210 189 159 125 121 123 124 124 144 221 207 200 200 201 202 205 207 209 209 208 207 208 207 207 207 208 209 210 211 213 214 214 215 216 215 215 215 216 219 220 219 217 216 215 213 211 209 208 208 208 208 209 210 211 213 216 217 217 213 207 202 196
64 81 104 100 16 46 99 100 94 162 233 250 261 280 307 305 170 141 113 228 270 257 192 191 200 188 166 148 141 133 127 140 237 230 211 203 202 203 204 206 207 208 208 209 209 209 208 208 208 208 209 210 211 212 213 215 216 217 217 216 215 219 222 222 220 219 218 216 214 213 212 211 210 211 211 211 213 214 216 218 218 218 213 206 202 198
62 66 83 91 84 117 114 94 216 216 247 258 259 287 319 352 118 119 148 243 262 268 205 188 183 182 173 159 149 141 155 183 215 230 218 207 204 205 207 208 209 209 209 209 210 210 209 209 207 207 208 210 211 212 213 215 216 217 218 216 216 222 225 224 222 220 218 217 216 215 215 214 213 212 212 214 215 216 218 218 217 216 211 203 199 198
61 61 79 131 158 134 111 86 289 269 268 272 284 307 329 360 73 119 196 233 247 276 264 183 173 172 172 166 160 173 198 202 212 224 216 207 205 206 208 210 210 211 211 211 211 209 208 209 209 209 210 211 211 212 213 214 215 217 217 214 217 227 230 226 222 219 218 219 219 218 217 216 214 214 214 216 217 216 216 218 218 215 209 203 199 198
132 81 65 126 146 134 124 104 351 288 262 283 308 324 356 56 162 208 210 228 276 3 33 141 172 174 177 181 186 197 204 207 216 224 215 209 209 208 207 208 208 209 211 211 211 211 209 208 209 209 209 209 211 212 212 212 214 215 214 214 221 232 232 225 221 220 220 221 221 219 217 215 214 215 215 216 217 216 215 216 218 215 208 202 200 198
165 146 122 182 168 124 76 66 59 242 253 318 331 342 51 115 216 208 170 111 19 54 69 108 170 182 188 195 203 211 214 212 218 228 220 211 210 209 207 207 208 208 209 209 210 211 210 209 208 207 208 209 209 211 212 212 212 212 212 215 223 230 228 224 221 221 221 221 219 216 215 214 214 214 215 215 216 216 216 216 215 212 206 200 198 197
166 151 167 215 186 122 117 165 200 215 255 331 338 233 179 213 224 171 122 107 87 66 66 87 156 190 198 204 212 219 220 218 221 226 219 207 207 207 206 206 206 207 209 210 210 210 210 210 208 207 207 209 209 210 211 212 212 211 212 215 222 227 226 223 220 220 220 220 217 215 214 215 215 215 214 215 215 214 215 216 214 209 204 197 195 197
208 194 172 182 185 159 176 207 215 226 276 330 328 215 110 93 110 120 107 96 83 65 59 62 67 171 200 210 217 219 219 220 223 226 222 213 210 209 208 207 207 207 209 210 210 210 209 210 209 207 206 208 210 210 211 212 213 214 215 216 220 226 226 221 219 219 220 219 216 215 215 215 214 214 214 213 213 213 214 215 212 207 201 196 194 197
261 244 130 125 155 163 168 212 164 53 29 79 97 97 93 90 89 92 92 90 84 70 62 60 50 49 141 208 219 221 221 222 223 225 224 218 211 209 208 206 205 206 208 209 208 208 207 206 207 206 205 206 208 209 211 213 215 217 219 219 222 227 225 221 219 220 218 217 216 215 216 215 213 213 212 212 213 215 217 215 211 206 201 197 196 198
325 27 71 92 104 110 121 264 291 44 46 106 108 99 95 91 84 83 85 86 89 80 68 64 59 51 53 68 221 227 227 226 224 222 220 214 209 207 205 203 203 205 207 208 207 205 203 203 204 205 205 206 207 208 211 214 216 218 220 221 225 227 224 220 219 220 217 215 215 215 215 214 211 210 210 211 212 215 218 217 212 208 204 200 198 197
323 19 74 104 84 111 200 239 256 46 68 127 127 109 99 98 94 88 86 88 92 89 77 69 64 56 53 51 45 320 241 237 230 222 217 211 208 205 202 202 203 204 205 206 205 203 202 203 204 205 207 208 208 209 210 212 215 216 218 222 226 226 222 218 219 220 218 215 215 215 214 212 211 210 209 210 213 215 216 215 212 210 209 206 204 202
309 354 93 120 87 71 215 245 246 77 64 95 118 111 102 99 93 86 87 90 91 91 90 82 70 59 52 47 41 36 359 260 236 225 218 212 208 206 204 204 204 204 206 206 204 203 204 204 206 208 210 210 210 210 210 211 213 216 218 223 226 225 221 218 218 220 219 217 215 215 213 211 211 211 211 211 214 217 218 217 214 213 211 210 211 209
74 68 141 102 102 145 214 205 172 141 152 165 120 104 101 100 89 81 81 77 74 76 76 82 94 90 70 56 49 30 357 263 229 226 222 216 211 208 206 204 203 203 205 204 203 203 205 207 208 210 211 211 211 211 211 212 214 216 219 224 226 225 222 221 220 219 218 217 216 214 212 211 211 212 214 214 215 216 217 217 215 214 212 210 210 208
108 160 168 142 160 217 222 189 167 143 155 168 133 107 110 110 94 89 86 77 74 74 66 68 85 87 83 106 103 49 358 310 239 230 223 215 212 210 208 207 207 206 205 204 202 202 204 206 209 210 211 212 212 212 212 213 215 217 220 224 225 224 223 223 222 219 217 217 216 214 213 212 212 213 214 216 216 216 215 212 210 210 210 210 208 204